• In Hungary
  • List of Countries
  • For 7 days
  • Water Temperature
  • Satellite Maps
  • Weather Map
  • News
  • Weather Widgets
  • user-avatar
    Login

    Hourly Weather Parizhskaya Kommuna

    Today, 22 August, Wednesday

    Time Temperature Precipitation Wind Pressure Humidity
    00:00 +20°C° 0 mm 3 mps 753 mmHg 48%
    01:00 +20°C° 0 mm 4 mps 752 mmHg 47%
    02:00 +19°C° 0 mm 4 mps 752 mmHg 45%
    03:00 +18°C° 0 mm 3 mps 752 mmHg 45%
    04:00 +18°C° 0 mm 3 mps 752 mmHg 46%
    05:00 +18°C° 0 mm 4 mps 751 mmHg 46%
    06:00 +18°C° 0 mm 4 mps 751 mmHg 46%
    07:00 +20°C° 0 mm 5 mps 751 mmHg 44%
    08:00 +22°C° 0 mm 5 mps 751 mmHg 41%
    09:00 +24°C° 0 mm 6 mps 751 mmHg 39%
    10:00 +24°C° 0.3 mm 6 mps 751 mmHg 46%
    11:00 +23°C° 0.3 mm 5 mps 751 mmHg 53%
    12:00 +23°C° 0.3 mm 5 mps 751 mmHg 60%
    13:00 +23°C° 0.7 mm 5 mps 751 mmHg 61%
    14:00 +23°C° 0.7 mm 5 mps 751 mmHg 61%
    15:00 +23°C° 0.7 mm 5 mps 751 mmHg 62%
    16:00 +22°C° 0.1 mm 5 mps 752 mmHg 59%
    17:00 +22°C° 0.1 mm 5 mps 752 mmHg 56%
    18:00 +21°C° 0.1 mm 5 mps 752 mmHg 53%
    19:00 +20°C° 0 mm 4 mps 753 mmHg 57%
    20:00 +18°C° 0 mm 4 mps 754 mmHg 60%
    21:00 +17°C° 0 mm 4 mps 754 mmHg 63%
    22:00 +16°C° 0 mm 3 mps 755 mmHg 66%
    23:00 +14°C° 0 mm 3 mps 755 mmHg 68%

    Tomorrow, 23 August, Thursday

    Time Temperature Precipitation Wind Pressure Humidity
    00:00 +13°C° 0 mm 3 mps 755 mmHg 71%
    01:00 +13°C° 0 mm 3 mps 756 mmHg 74%
    02:00 +12°C° 0 mm 3 mps 756 mmHg 77%
    03:00 +12°C° 0 mm 3 mps 756 mmHg 79%
    04:00 +12°C° 0 mm 3 mps 757 mmHg 79%
    05:00 +12°C° 0 mm 3 mps 757 mmHg 79%
    06:00 +12°C° 0 mm 3 mps 758 mmHg 79%
    07:00 +14°C° 0 mm 3 mps 758 mmHg 71%
    08:00 +17°C° 0 mm 4 mps 758 mmHg 63%
    09:00 +19°C° 0 mm 5 mps 758 mmHg 54%
    10:00 +20°C° 0 mm 5 mps 758 mmHg 50%
    11:00 +21°C° 0 mm 5 mps 759 mmHg 46%
    12:00 +22°C° 0 mm 5 mps 759 mmHg 42%
    13:00 +22°C° 0 mm 5 mps 759 mmHg 41%
    14:00 +22°C° 0 mm 5 mps 759 mmHg 41%
    15:00 +22°C° 0 mm 5 mps 759 mmHg 40%
    16:00 +21°C° 0 mm 4 mps 759 mmHg 44%
    17:00 +21°C° 0 mm 4 mps 759 mmHg 47%
    18:00 +20°C° 0 mm 3 mps 759 mmHg 51%
    19:00 +19°C° 0 mm 3 mps 759 mmHg 55%
    20:00 +17°C° 0 mm 2 mps 760 mmHg 59%
    21:00 +16°C° 0 mm 2 mps 760 mmHg 63%
    22:00 +15°C° 0 mm 2 mps 760 mmHg 65%
    23:00 +15°C° 0 mm 1 mps 760 mmHg 66%

    Day after tomorrow, 24 August, Friday

    Time Temperature Precipitation Wind Pressure Humidity
    00:00 +14°C° 0 mm 1 mps 760 mmHg 68%
    01:00 +14°C° 0 mm 1 mps 760 mmHg 69%
    02:00 +13°C° 0 mm 1 mps 760 mmHg 70%
    03:00 +13°C° 0 mm 2 mps 761 mmHg 72%
    04:00 +13°C° 0 mm 2 mps 761 mmHg 72%
    05:00 +13°C° 0 mm 2 mps 761 mmHg 72%
    06:00 +13°C° 0 mm 2 mps 761 mmHg 72%
    07:00 +16°C° 0 mm 2 mps 761 mmHg 64%
    08:00 +18°C° 0 mm 2 mps 761 mmHg 56%
    09:00 +20°C° 0 mm 2 mps 761 mmHg 48%
    10:00 +21°C° 0 mm 3 mps 760 mmHg 44%
    11:00 +22°C° 0 mm 3 mps 760 mmHg 39%
    12:00 +24°C° 0 mm 3 mps 760 mmHg 35%
    13:00 +25°C° 0 mm 3 mps 760 mmHg 35%
    14:00 +25°C° 0 mm 3 mps 759 mmHg 34%
    15:00 +26°C° 0 mm 3 mps 759 mmHg 33%
    16:00 +25°C° 0 mm 3 mps 759 mmHg 38%
    17:00 +24°C° 0 mm 3 mps 759 mmHg 43%
    18:00 +23°C° 0 mm 2 mps 759 mmHg 47%
    19:00 +20°C° 0 mm 2 mps 759 mmHg 51%
    20:00 +19°C° 0 mm 2 mps 759 mmHg 55%
    21:00 +18°C° 0 mm 1 mps 759 mmHg 59%
    22:00 +18°C° 0 mm 1 mps 759 mmHg 60%
    23:00 +16°C° 0 mm 1 mps 759 mmHg 62%

    25 August, Saturday

    Time Temperature Precipitation Wind Pressure Humidity
    00:00 +16°C° 0 mm 1 mps 759 mmHg 64%
    01:00 +15°C° 0 mm 1 mps 759 mmHg 65%
    02:00 +15°C° 0 mm 1 mps 758 mmHg 67%
    03:00 +15°C° 0 mm 1 mps 758 mmHg 68%
    04:00 +15°C° 0 mm 2 mps 758 mmHg 69%
    05:00 +15°C° 0 mm 2 mps 758 mmHg 69%
    06:00 +15°C° 0 mm 2 mps 758 mmHg 70%
    07:00 +17°C° 0 mm 2 mps 758 mmHg 63%
    08:00 +19°C° 0 mm 2 mps 758 mmHg 56%
    09:00 +22°C° 0 mm 3 mps 758 mmHg 49%
    10:00 +24°C° 0 mm 3 mps 758 mmHg 45%
    11:00 +25°C° 0 mm 3 mps 758 mmHg 42%
    12:00 +26°C° 0 mm 3 mps 757 mmHg 38%
    13:00 +27°C° 0 mm 3 mps 757 mmHg 37%
    14:00 +27°C° 0 mm 3 mps 757 mmHg 36%
    15:00 +28°C° 0 mm 3 mps 757 mmHg 36%
    16:00 +27°C° 0 mm 3 mps 756 mmHg 40%
    17:00 +26°C° 0 mm 2 mps 756 mmHg 45%
    18:00 +25°C° 0 mm 2 mps 756 mmHg 50%
    19:00 +24°C° 0 mm 2 mps 756 mmHg 56%
    20:00 +21°C° 0 mm 2 mps 757 mmHg 61%
    21:00 +20°C° 0 mm 2 mps 757 mmHg 67%
    22:00 +19°C° 0 mm 2 mps 757 mmHg 71%
    23:00 +18°C° 0 mm 2 mps 757 mmHg 75%

    26 August, Sunday

    Time Temperature Precipitation Wind Pressure Humidity
    00:00 +17°C° 0 mm 2 mps 757 mmHg 80%
    01:00 +17°C° 0 mm 2 mps 757 mmHg 79%
    02:00 +16°C° 0 mm 2 mps 757 mmHg 78%
    03:00 +16°C° 0 mm 2 mps 757 mmHg 78%
    04:00 +16°C° 0 mm 2 mps 758 mmHg 77%
    05:00 +16°C° 0 mm 2 mps 758 mmHg 77%
    06:00 +16°C° 0 mm 2 mps 758 mmHg 76%
    07:00 +17°C° 0 mm 2 mps 758 mmHg 70%
    08:00 +19°C° 0 mm 3 mps 758 mmHg 63%
    09:00 +21°C° 0 mm 3 mps 758 mmHg 56%
    10:00 +22°C° 0 mm 3 mps 758 mmHg 51%
    11:00 +24°C° 0 mm 3 mps 758 mmHg 47%
    12:00 +25°C° 0 mm 3 mps 758 mmHg 42%
    13:00 +26°C° 0 mm 3 mps 757 mmHg 40%
    14:00 +26°C° 0 mm 3 mps 757 mmHg 38%
    15:00 +26°C° 0 mm 3 mps 757 mmHg 36%
    16:00 +25°C° 0 mm 3 mps 757 mmHg 39%
    17:00 +24°C° 0 mm 3 mps 757 mmHg 43%
    18:00 +22°C° 0 mm 3 mps 757 mmHg 47%
    19:00 +21°C° 0 mm 2 mps 757 mmHg 50%
    20:00 +19°C° 0 mm 2 mps 757 mmHg 54%
    21:00 +18°C° 0 mm 2 mps 757 mmHg 57%
    22:00 +17°C° 0 mm 2 mps 757 mmHg 60%
    23:00 +16°C° 0 mm 2 mps 757 mmHg 64%

    27 August, Monday

    Time Temperature Precipitation Wind Pressure Humidity
    00:00 +16°C° 0 mm 2 mps 757 mmHg 68%
    01:00 +15°C° 0 mm 2 mps 757 mmHg 71%
    02:00 +15°C° 0 mm 2 mps 757 mmHg 74%
    03:00 +14°C° 0 mm 2 mps 757 mmHg 78%
    04:00 +15°C° 0 mm 2 mps 758 mmHg 79%
    05:00 +15°C° 0 mm 2 mps 758 mmHg 80%
    06:00 +15°C° 0 mm 2 mps 758 mmHg 81%
    07:00 +17°C° 0 mm 2 mps 758 mmHg 75%
    08:00 +19°C° 0 mm 3 mps 758 mmHg 68%
    09:00 +21°C° 0 mm 3 mps 758 mmHg 61%
    10:00 +22°C° 0 mm 3 mps 758 mmHg 56%
    11:00 +25°C° 0 mm 3 mps 758 mmHg 51%
    12:00 +26°C° 0 mm 3 mps 758 mmHg 46%
    13:00 +26°C° 0 mm 3 mps 757 mmHg 44%
    14:00 +26°C° 0 mm 3 mps 757 mmHg 43%
    15:00 +27°C° 0 mm 3 mps 757 mmHg 41%
    16:00 +26°C° 0 mm 3 mps 757 mmHg 45%
    17:00 +25°C° 0 mm 3 mps 757 mmHg 49%
    18:00 +24°C° 0 mm 2 mps 757 mmHg 53%
    19:00 +23°C° 0 mm 2 mps 757 mmHg 58%
    20:00 +21°C° 0 mm 2 mps 758 mmHg 63%
    21:00 +19°C° 0 mm 2 mps 758 mmHg 68%
    22:00 +18°C° 0 mm 2 mps 758 mmHg 71%
    23:00 +18°C° 0 mm 2 mps 758 mmHg 74%
    Show more